User: anonymous   Login
Location: Oshawa
(43.9000°N, 78.8670°W)
Time: 08:03:36
(UTC-04:00)
Language:

CZ-4C R/B - Orbit

View from above orbital plane
View from above orbital plane
View from above satellite
View from above satellite

Ground track
Ground track

The orbit data is extracted from the following two-line orbital elements,

1 32290U 07055B   17085.91258889 +.00002915 +00000-0 +83876-4 0  9997
2 32290 097.5245 190.7013 0069116 065.9440 294.9015 15.34268894519120
Epoch (UTC): 26 March 2017 21:54:07
Eccentricity: 0.0069116
inclination: 97.5245°
perigee height: 416 km
apogee height: 510 km
right ascension of ascending node: 190.7013°
argument of perigee: 65.9440°
revolutions per day: 15.34268894
mean anomaly at epoch: 294.9015°
orbit number at epoch: 51912

The dashed part of the orbit path shows where the satellite is in the earth's shadow,  

DLR